Location: Cointrin
(46.2167°N, 6.1167°E)
Time: 20:04:22
(UTC+00:00)

BREEZE-M DEB (TANK) - Pass Details

Date: 08 February 2023
Orbit: 426 x 13838 km, 45.9° (Epoch: 20 March)

Event Time Altitude Azimuth Distance (km) Brightness Sun altitude
Rises 18:53:13 0° 281° (W) 2,650 7.3 -21.6°
Reaches altitude 10° 18:54:42 10° 278° (W) 1,982 6.3 -21.9°
Maximum altitude 18:58:39 67° 195° (SSW) 1,083 3.7 -22.6°
Enters shadow 19:02:59 30° 122° (ESE) 2,564 5.2 -23.3°
